| time (UTC) | temp C | wind direction | speed KPH | gust KPH | rain 1hr cm | rain 24hr cm | rain mn cm | humidity % | barometer mb |
| 20260503021539 | 9 | 0 | 0.0 | 0.0 | 0.00 | 0.48 | 0.00 | 100 | 1010.2 |
| 20260503020035 | 10 | 0 | 0.0 | 0.0 | 0.00 | 0.48 | 0.00 | 100 | 1010.2 |
| 20260503014543 | 10 | 0 | 0.0 | 0.0 | 0.00 | 0.48 | 0.00 | 100 | 1010.4 |
| 20260503013036 | 10 | 0 | 0.0 | 0.0 | 0.00 | 0.48 | 0.00 | 100 | 1010.7 |
| 20260503011548 | 11 | 0 | 0.0 | 0.0 | 0.00 | 0.48 | 0.00 | 100 | 1010.8 |
| 20260503010037 | 10 | 0 | 0.0 | 0.0 | 0.00 | 0.48 | 0.00 | 100 | 1010.9 |
| 20260503004539 | 11 | 0 | 0.0 | 0.0 | 0.00 | 0.48 | 0.00 | 100 | 1011.0 |
| 20260503003047 | 11 | 0 | 0.0 | 0.0 | 0.00 | 0.48 | 0.00 | 100 | 1011.1 |
| 20260503001538 | 11 | 0 | 0.0 | 0.0 | 0.00 | 0.48 | 0.00 | 100 | 1011.1 |
| 20260503000038 | 11 | 0 | 0.0 | 0.0 | 0.00 | 0.48 | 0.00 | 100 | 1011.4 |
| 20260502234535 | 11 | 0 | 0.0 | 0.0 | 0.00 | 0.48 | 0.00 | 100 | 1011.4 |
| 20260502233035 | 11 | 0 | 0.0 | 0.0 | 0.00 | 0.48 | 0.00 | 100 | 1011.5 |
| 20260502231541 | 11 | 0 | 0.0 | 0.0 | 0.00 | 0.48 | 0.00 | 100 | 1011.5 |
| 20260502230040 | 11 | 0 | 0.0 | 0.0 | 0.03 | 0.48 | 0.00 | 100 | 1011.4 |
| 20260502224538 | 11 | 0 | 0.0 | 0.0 | 0.03 | 0.46 | 0.46 | 100 | 1011.4 |
| 20260502223037 | 11 | 0 | 0.0 | 0.0 | 0.03 | 0.46 | 0.46 | 100 | 1011.5 |
| 20260502221539 | 11 | 0 | 0.0 | 0.0 | 0.05 | 0.46 | 0.46 | 100 | 1011.5 |
| 20260502220042 | 11 | 0 | 0.0 | 0.0 | 0.05 | 0.46 | 0.46 | 100 | 1011.7 |
| 20260502214537 | 11 | 0 | 0.0 | 0.0 | 0.05 | 0.43 | 0.43 | 100 | 1011.8 |
| 20260502213041 | 11 | 0 | 0.0 | 0.0 | 0.08 | 0.43 | 0.43 | 100 | 1011.9 |
| 20260502211540 | 11 | 0 | 0.0 | 0.0 | 0.05 | 0.41 | 0.41 | 100 | 1011.9 |
| 20260502210040 | 11 | 0 | 0.0 | 0.0 | 0.05 | 0.38 | 0.38 | 100 | 1011.8 |
| 20260502204536 | 11 | 0 | 0.0 | 0.0 | 0.05 | 0.36 | 0.36 | 100 | 1011.9 |
| 20260502203059 | 11 | 0 | 0.0 | 0.0 | 0.08 | 0.36 | 0.36 | 100 | 1012.1 |
| 20260502201536 | 11 | 0 | 0.0 | 0.0 | 0.08 | 0.36 | 0.36 | 100 | 1012.1 |
| 20260502200035 | 11 | 0 | 0.0 | 0.0 | 0.10 | 0.33 | 0.33 | 100 | 1012.1 |
| 20260502194538 | 11 | 0 | 0.0 | 0.0 | 0.15 | 0.30 | 0.30 | 100 | 1012.3 |
| 20260502193038 | 11 | 0 | 0.0 | 0.0 | 0.15 | 0.28 | 0.28 | 100 | 1012.4 |
| 20260502191536 | 11 | 0 | 0.0 | 0.0 | 0.18 | 0.25 | 0.25 | 100 | 1012.5 |
| 20260502190037 | 10 | 0 | 0.0 | 0.0 | 0.13 | 0.18 | 0.18 | 100 | 1012.6 |
| 20260502184540 | 10 | 0 | 0.0 | 0.0 | 0.10 | 0.15 | 0.15 | 100 | 1012.8 |
| 20260502183039 | 10 | 0 | 0.0 | 0.0 | 0.10 | 0.10 | 0.10 | 100 | 1012.8 |
| 20260502181550 | 11 | 0 | 0.0 | 0.0 | 0.08 | 0.08 | 0.08 | 100 | 1012.8 |
| 20260502163040 | 15 | 0 | 0.0 | 0.0 | 0.00 | 0.00 | 0.00 | 20 | 1012.9 |
| 20260502161541 | 15 | 0 | 0.0 | 0.0 | 0.00 | 0.00 | 0.00 | 21 | 1013.0 |
| 20260502151545 | 16 | 300 | 0.0 | 4.8 | 0.00 | 0.00 | 0.00 | 18 | 1013.6 |
| 20260502123038 | 16 | 259 | 1.6 | 6.4 | 0.00 | 0.00 | 0.00 | 8 | 1015.2 |
| 20260502121539 | 16 | 160 | 0.0 | 3.2 | 0.00 | 0.00 | 0.00 | 8 | 1015.4 |
| 20260502114549 | 16 | 123 | 0.0 | 6.4 | 0.00 | 0.03 | 0.00 | 5 | 1015.9 |
| 20260502113041 | 16 | 357 | 0.0 | 4.8 | 0.00 | 0.03 | 0.00 | 3 | 1016.3 |
| 20260502111538 | 16 | 208 | 1.6 | 6.4 | 0.00 | 0.03 | 0.00 | 100 | 1016.5 |
| 20260502110043 | 15 | 0 | 0.0 | 6.4 | 0.00 | 0.03 | 0.00 | 100 | 1016.6 |
| 20260502104540 | 15 | 0 | 0.0 | 0.0 | 0.00 | 0.36 | 0.00 | 100 | 1016.4 |
| 20260502103037 | 13 | 0 | 1.6 | 4.8 | 0.00 | 0.36 | 0.00 | 100 | 1016.6 |
| 20260502101545 | 12 | 0 | 0.0 | 0.0 | 0.00 | 0.36 | 0.00 | 100 | 1016.7 |
| 20260502070040 | 10 | 0 | 0.0 | 0.0 | 0.00 | 0.46 | 0.00 | 100 | 1017.5 |
| 20260502064553 | 10 | 0 | 0.0 | 0.0 | 0.00 | 0.46 | 0.00 | 100 | 1017.5 |
| 20260502063038 | 10 | 0 | 0.0 | 0.0 | 0.00 | 0.46 | 0.00 | 100 | 1017.5 |
| 20260502061535 | 10 | 0 | 0.0 | 0.0 | 0.00 | 0.46 | 0.00 | 100 | 1017.5 |
| 20260502060037 | 10 | 0 | 0.0 | 0.0 | 0.00 | 0.46 | 0.00 | 100 | 1017.6 |
| 20260502054543 | 10 | 0 | 0.0 | 0.0 | 0.00 | 0.46 | 0.00 | 100 | 1017.4 |
| 20260502053039 | 10 | 0 | 0.0 | 0.0 | 0.00 | 0.46 | 0.00 | 100 | 1017.4 |
| 20260502051540 | 10 | 0 | 0.0 | 0.0 | 0.00 | 0.46 | 0.00 | 100 | 1017.3 |
| 20260502050037 | 10 | 0 | 0.0 | 0.0 | 0.00 | 0.46 | 0.00 | 100 | 1017.5 |
| 20260502044540 | 10 | 0 | 0.0 | 0.0 | 0.00 | 0.46 | 0.00 | 100 | 1017.5 |
| 20260502043045 | 10 | 0 | 0.0 | 0.0 | 0.00 | 0.46 | 0.00 | 100 | 1017.5 |
| 20260502041538 | 10 | 0 | 0.0 | 0.0 | 0.00 | 0.46 | 0.00 | 100 | 1017.8 |
| 20260502040051 | 10 | 0 | 0.0 | 0.0 | 0.00 | 0.46 | 0.00 | 100 | 1017.7 |
| 20260502034535 | 10 | 0 | 0.0 | 0.0 | 0.00 | 0.46 | 0.00 | 100 | 1017.8 |
| 20260502033036 | 10 | 0 | 0.0 | 0.0 | 0.00 | 0.46 | 0.00 | 100 | 1017.9 |
| 20260502031546 | 10 | 0 | 0.0 | 0.0 | 0.00 | 0.46 | 0.00 | 100 | 1018.1 |
| 20260502030037 | 10 | 0 | 0.0 | 0.0 | 0.00 | 0.46 | 0.00 | 100 | 1018.1 |
| 20260502024534 | 10 | 0 | 0.0 | 0.0 | 0.00 | 0.46 | 0.00 | 100 | 1018.2 |
| 20260502023038 | 9 | 0 | 0.0 | 0.0 | 0.00 | 0.46 | 0.00 | 100 | 1018.3 |